Bluffton, MN

2:41 PM CST on December 03, 2016 (GMT -0600)
Wadena Municipal

Weather History for KADC - April, 2013

Change the Weather History Date:

Friday, April 12, 2013

  Actual Average Record
Temperature  
Mean Temperature 26 °F -  
Max Temperature 30 °F 48 °F 74 °F (1949)
Min Temperature 23 °F 28 °F 6 °F (1950)
Degree Days  
Heating Degree Days 38    
Moisture  
Dew Point 22 °F    
Average Humidity 84    
Maximum Humidity 93    
Minimum Humidity 64    
Precipitation  
Precipitation 0.01 in - - ()
Sea Level Pressure  
Sea Level Pressure 29.78 in    
Wind  
Wind Speed 8 mph (NNE)    
Max Wind Speed 14 mph    
Max Gust Speed 22 mph    
Visibility 6 miles    
Events Snow    
Averages and records for this station are not official NWS values.
T = Trace of Precipitation, MM = Missing Value Source: NWS Daily Summary

Daily Weather History Graph

Daily Weather History Graph

Search for Another Location

Airport or City:

Trip Planner

Search our weather history database for the weather conditions in past years. The results will help you decide how hot, cold, wet, or windy it might be!

Date:

Astronomy

Apr. 12, 2013 Rise Set
Actual Time 6:38 AM CDT 8:04 PM CDT
Civil Twilight 6:07 AM CDT 8:36 PM CDT
Nautical Twilight 5:29 AM CDT 9:14 PM CDT
Astronomical Twilight 4:49 AM CDT 9:55 PM CDT
Moon 7:41 AM CDT (4/12) 10:45 PM CDT (4/12)
Length of Visible Light 14h 28m
Length of Day
13h 26m
Waxing Crescent, 5% of the Moon is Illuminated
Apr 12
Waxing Crescent
Apr 18
First Quarter
Apr 25
Full
May 2
Last Quarter
May 9
New

Hourly Weather History & Observations

Time (CDT) Temp. Windchill Dew Point Humidity Pressure Visibility Wind Dir Wind Speed Gust Speed Precip Events Conditions
12:15 AM 24.8 °F 14.6 °F 21.2 °F 86% 29.78 in 2.0 mi ENE 10.4 mph - N/A Snow Light Snow
12:35 AM 24.8 °F 16.9 °F 21.2 °F 86% 29.78 in 1.8 mi NE 6.9 mph - N/A Snow Light Snow
12:53 AM 24.8 °F 16.9 °F 21.2 °F 86% 29.78 in 3.0 mi ENE 6.9 mph - N/A Snow Light Snow
1:15 AM 24.8 °F 17.9 °F 21.2 °F 86% 29.78 in 4.0 mi NE 5.8 mph - N/A Snow Light Snow
1:35 AM 24.8 °F 17.9 °F 21.2 °F 86% 29.78 in 5.0 mi NE 5.8 mph - N/A Snow Light Snow
1:45 AM 24.8 °F 16.9 °F 21.2 °F 86% 29.78 in 7.0 mi NE 6.9 mph - N/A Snow Light Snow
2:15 AM 24.8 °F 17.9 °F 21.2 °F 86% 29.77 in 4.0 mi NE 5.8 mph - N/A Snow Light Snow
2:34 AM 24.8 °F 17.9 °F 21.2 °F 86% 29.76 in 4.0 mi NNE 5.8 mph - N/A Snow Light Snow
2:53 AM 24.8 °F 16.9 °F 21.2 °F 86% 29.76 in 5.0 mi NNE 6.9 mph - N/A Snow Light Snow
3:14 AM 24.8 °F 15.3 °F 21.2 °F 86% 29.76 in 10.0 mi North 9.2 mph - N/A Snow Light Snow
3:35 AM 23.0 °F 13.1 °F 21.2 °F 93% 29.75 in 10.0 mi NNE 9.2 mph - N/A Snow Light Snow
3:52 AM 23.0 °F 14.7 °F 21.2 °F 93% 29.75 in 10.0 mi NNE 6.9 mph - N/A   Overcast
4:15 AM 23.0 °F 12.4 °F 21.2 °F 93% 29.74 in 10.0 mi NNE 10.4 mph - N/A Snow Light Snow
4:35 AM 23.0 °F 13.1 °F 21.2 °F 93% 29.74 in 10.0 mi NNE 9.2 mph - N/A Snow Light Snow
4:52 AM 23.0 °F 11.7 °F 21.2 °F 93% 29.74 in 7.0 mi NNE 11.5 mph 16.1 mph N/A Snow Light Snow
5:15 AM 23.0 °F 13.9 °F 21.2 °F 93% 29.75 in 2.5 mi NNE 8.1 mph - N/A Snow Light Snow
5:34 AM 23.0 °F 13.1 °F 21.2 °F 93% 29.75 in 2.5 mi NNE 9.2 mph - N/A Snow Light Snow
5:53 AM 23.0 °F 13.1 °F 21.2 °F 93% 29.75 in 2.5 mi NNE 9.2 mph - N/A Snow Light Snow
6:15 AM 23.0 °F 12.4 °F 21.2 °F 93% 29.75 in 3.0 mi NNE 10.4 mph - N/A Snow Light Snow
6:35 AM 23.0 °F 13.1 °F 21.2 °F 93% 29.75 in 4.0 mi NNE 9.2 mph - N/A Snow Light Snow
6:52 AM 23.0 °F 13.1 °F 21.2 °F 93% 29.75 in 3.0 mi NNE 9.2 mph - N/A Snow Light Snow
7:14 AM 23.0 °F 13.1 °F 21.2 °F 93% 29.75 in 7.0 mi NNE 9.2 mph - N/A Snow Light Snow
7:34 AM 23.0 °F 11.7 °F 19.4 °F 86% 29.75 in 4.0 mi NNE 11.5 mph 18.4 mph N/A Snow Light Snow
7:52 AM 23.0 °F 11.7 °F 19.4 °F 86% 29.75 in 2.5 mi NNE 11.5 mph 17.3 mph N/A Snow Light Snow
8:14 AM 24.8 °F 13.4 °F 19.4 °F 80% 29.75 in 7.0 mi NNE 12.7 mph - N/A Snow Light Snow
8:35 AM 24.8 °F 12.9 °F 19.4 °F 80% 29.76 in 10.0 mi NNE 13.8 mph 21.9 mph N/A   Overcast
8:53 AM 24.8 °F 14.6 °F 19.4 °F 80% 29.76 in 10.0 mi NNE 10.4 mph 16.1 mph N/A Snow Light Snow
9:14 AM 24.8 °F 12.9 °F 19.4 °F 80% 29.76 in 10.0 mi NE 13.8 mph 19.6 mph N/A Snow Light Snow
9:53 AM 26.6 °F 15.7 °F 19.4 °F 74% 29.76 in 10.0 mi NE 12.7 mph 20.7 mph N/A Snow Light Snow
10:14 AM 26.6 °F 15.2 °F 19.4 °F 74% 29.77 in 5.0 mi NNE 13.8 mph 19.6 mph N/A Snow Light Snow
10:35 AM 26.6 °F 15.7 °F 21.2 °F 80% 29.77 in 4.0 mi NE 12.7 mph 16.1 mph N/A Snow Light Snow
10:53 AM 26.6 °F 15.7 °F 21.2 °F 80% 29.77 in 4.0 mi NE 12.7 mph 17.3 mph N/A Snow Light Snow
11:14 AM 26.6 °F 15.2 °F 21.2 °F 80% 29.77 in 10.0 mi NNE 13.8 mph - N/A Snow Light Snow
11:35 AM 26.6 °F 16.2 °F 19.4 °F 74% 29.78 in 10.0 mi NE 11.5 mph - N/A Snow Light Snow
11:52 AM 28.4 °F 18.5 °F 21.2 °F 74% 29.78 in 7.0 mi NE 11.5 mph - N/A Snow Light Snow
12:15 PM 28.4 °F 18.5 °F 21.2 °F 74% 29.78 in 10.0 mi NNE 11.5 mph - N/A Snow Light Snow
12:35 PM 28.4 °F 19.7 °F 21.2 °F 74% 29.78 in 10.0 mi NNE 9.2 mph - N/A   Overcast
12:52 PM 28.4 °F 18.0 °F 21.2 °F 74% 29.78 in 10.0 mi NNE 12.7 mph 16.1 mph N/A Snow Light Snow
1:15 PM 28.4 °F 19.1 °F 19.4 °F 69% 29.78 in 10.0 mi NNE 10.4 mph 16.1 mph N/A   Overcast
1:34 PM 30.2 °F 23.4 °F 19.4 °F 64% 29.78 in 10.0 mi NNE 6.9 mph - N/A   Overcast
1:53 PM 30.2 °F 21.9 °F 21.2 °F 69% 29.78 in 10.0 mi NNE 9.2 mph - N/A   Overcast
2:15 PM 30.2 °F 21.9 °F 21.2 °F 69% 29.78 in 10.0 mi North 9.2 mph - N/A Snow Light Snow
2:34 PM 28.4 °F 19.1 °F 21.2 °F 74% 29.78 in 5.0 mi North 10.4 mph - N/A Snow Light Snow
2:52 PM 28.4 °F 19.7 °F 21.2 °F 74% 29.79 in 7.0 mi North 9.2 mph - N/A Snow Light Snow
3:14 PM 30.2 °F 21.9 °F 21.2 °F 69% 29.79 in 10.0 mi NNE 9.2 mph - N/A   Overcast
3:34 PM 30.2 °F 21.9 °F 21.2 °F 69% 29.79 in 10.0 mi NNE 9.2 mph - N/A   Overcast
3:53 PM 30.2 °F 23.4 °F 19.4 °F 64% 29.78 in 10.0 mi North 6.9 mph - N/A   Overcast
4:15 PM 30.2 °F 22.6 °F 21.2 °F 69% 29.79 in 10.0 mi North 8.1 mph - N/A   Overcast
4:35 PM 28.4 °F 21.2 °F 21.2 °F 74% 29.79 in 4.0 mi North 6.9 mph - N/A Snow Light Snow
4:53 PM 28.4 °F 23.3 °F 21.2 °F 74% 29.80 in 2.5 mi North 4.6 mph - N/A Snow Light Snow
5:14 PM 28.4 °F 21.2 °F 21.2 °F 74% 29.80 in 3.0 mi North 6.9 mph - N/A Snow Light Snow
5:35 PM 28.4 °F 21.2 °F 23.0 °F 80% 29.80 in 5.0 mi NW 6.9 mph - N/A Snow Light Snow
5:53 PM 28.4 °F 22.2 °F 23.0 °F 80% 29.80 in 7.0 mi North 5.8 mph - N/A Snow Light Snow
6:14 PM 28.4 °F 22.2 °F 23.0 °F 80% 29.81 in 7.0 mi NNW 5.8 mph - N/A Snow Light Snow
6:35 PM 28.4 °F 23.3 °F 23.0 °F 80% - 4.0 mi NNW 4.6 mph - N/A Snow Light Snow
6:53 PM 28.4 °F 24.6 °F 24.8 °F 86% 29.81 in 4.0 mi NW 3.5 mph - N/A Snow Light Snow
7:14 PM 26.6 °F 22.6 °F 24.8 °F 93% 29.82 in 3.0 mi North 3.5 mph - N/A Snow Light Snow
7:35 PM 26.6 °F 22.6 °F 24.8 °F 93% 29.81 in 1.8 mi NW 3.5 mph - N/A Snow Light Snow
7:52 PM 26.6 °F 21.2 °F 24.8 °F 93% 29.81 in 7.0 mi NW 4.6 mph - N/A Snow Light Snow
8:15 PM 26.6 °F - 24.8 °F 93% 29.81 in 1.5 mi Calm Calm - N/A Snow Light Snow
8:35 PM 26.6 °F - 24.8 °F 93% 29.82 in 2.5 mi Calm Calm - N/A Snow Light Snow
8:53 PM 26.6 °F - 24.8 °F 93% 29.82 in 4.0 mi Calm Calm - N/A Snow Light Snow
9:14 PM 26.6 °F 20.0 °F 24.8 °F 93% 29.83 in 3.0 mi NNW 5.8 mph - N/A Snow Light Snow
9:35 PM 26.6 °F 22.6 °F 24.8 °F 93% 29.83 in 2.5 mi NNW 3.5 mph - N/A Snow Light Snow
9:52 PM 26.6 °F 22.6 °F 24.8 °F 93% 29.83 in 4.0 mi NW 3.5 mph - N/A Snow Light Snow
10:15 PM 26.6 °F - 24.8 °F 93% 29.84 in 1.0 mi Calm Calm - N/A Snow Light Snow
10:34 PM 26.6 °F 20.0 °F 24.8 °F 93% 29.84 in 4.0 mi NNW 5.8 mph - N/A Snow Light Snow
10:53 PM 26.6 °F 20.0 °F 24.8 °F 93% 29.84 in 5.0 mi NW 5.8 mph - 0.01 in Snow Light Snow
11:15 PM 24.8 °F 16.1 °F 23.0 °F 93% 29.83 in 5.0 mi WNW 8.1 mph - N/A Snow Light Snow
11:35 PM 24.8 °F 16.1 °F 23.0 °F 93% 29.83 in 3.0 mi NW 8.1 mph - N/A Snow Light Snow
11:52 PM 24.8 °F 17.9 °F 23.0 °F 93% 29.83 in 3.0 mi NW 5.8 mph - N/A Snow Light Snow